• In Germany
  • List of Countries
  • For 7 days
  • Water Temperature
  • Satellite Maps
  • Weather Map
  • Weather Widgets
  • user-avatar
    Login

    Hourly Weather Ganja

    Today, 27 March, Monday

    Time Temperature Precipitation Wind Pressure Humidity
    00:00 +8°C° 0 mm 2 mps 724 mmHg 59%
    01:00 +8°C° 0 mm 2 mps 724 mmHg 60%
    02:00 +8°C° 0 mm 2 mps 724 mmHg 60%
    03:00 +7°C° 0 mm 3 mps 724 mmHg 60%
    04:00 +7°C° 0 mm 3 mps 724 mmHg 61%
    05:00 +7°C° 0 mm 3 mps 724 mmHg 62%
    06:00 +7°C° 0 mm 3 mps 724 mmHg 62%
    07:00 +9°C° 0 mm 3 mps 724 mmHg 56%
    08:00 +12°C° 0 mm 3 mps 723 mmHg 50%
    09:00 +14°C° 0 mm 3 mps 723 mmHg 43%
    10:00 +16°C° 0 mm 3 mps 722 mmHg 41%
    11:00 +18°C° 0 mm 3 mps 722 mmHg 38%
    12:00 +19°C° 0 mm 4 mps 722 mmHg 36%
    13:00 +19°C° 0 mm 4 mps 721 mmHg 35%
    14:00 +19°C° 0 mm 4 mps 721 mmHg 35%
    15:00 +20°C° 0 mm 4 mps 720 mmHg 35%
    16:00 +18°C° 0 mm 3 mps 720 mmHg 40%
    17:00 +16°C° 0 mm 3 mps 720 mmHg 45%
    18:00 +14°C° 0 mm 2 mps 720 mmHg 51%
    19:00 +14°C° 0 mm 2 mps 721 mmHg 52%
    20:00 +13°C° 0 mm 2 mps 721 mmHg 53%
    21:00 +11°C° 0 mm 3 mps 721 mmHg 54%
    22:00 +11°C° 0 mm 3 mps 721 mmHg 55%
    23:00 +10°C° 0 mm 3 mps 721 mmHg 57%

    Tomorrow, 28 March, Tuesday

    Time Temperature Precipitation Wind Pressure Humidity
    00:00 +10°C° 0 mm 3 mps 721 mmHg 59%
    01:00 +9°C° 0 mm 3 mps 721 mmHg 60%
    02:00 +9°C° 0 mm 3 mps 721 mmHg 61%
    03:00 +9°C° 0 mm 3 mps 721 mmHg 62%
    04:00 +9°C° 0 mm 3 mps 722 mmHg 66%
    05:00 +8°C° 0 mm 3 mps 722 mmHg 70%
    06:00 +8°C° 0 mm 3 mps 722 mmHg 74%
    07:00 +8°C° 0 mm 4 mps 723 mmHg 69%
    08:00 +10°C° 0 mm 4 mps 723 mmHg 65%
    09:00 +11°C° 0 mm 4 mps 724 mmHg 60%
    10:00 +12°C° 0.1 mm 4 mps 724 mmHg 58%
    11:00 +12°C° 0.1 mm 4 mps 724 mmHg 56%
    12:00 +13°C° 0.1 mm 4 mps 724 mmHg 53%
    13:00 +13°C° 0.2 mm 4 mps 723 mmHg 53%
    14:00 +13°C° 0.2 mm 4 mps 723 mmHg 53%
    15:00 +13°C° 0.2 mm 3 mps 723 mmHg 53%
    16:00 +12°C° 0.1 mm 3 mps 723 mmHg 56%
    17:00 +12°C° 0.1 mm 2 mps 724 mmHg 58%
    18:00 +11°C° 0.1 mm 1 mps 724 mmHg 61%
    19:00 +10°C° 0 mm 1 mps 724 mmHg 63%
    20:00 +10°C° 0 mm 1 mps 725 mmHg 65%
    21:00 +9°C° 0 mm 1 mps 725 mmHg 67%
    22:00 +7°C° 0 mm 2 mps 725 mmHg 68%
    23:00 +7°C° 0 mm 2 mps 725 mmHg 70%

    Day after tomorrow, 29 March, Wednesday

    Time Temperature Precipitation Wind Pressure Humidity
    00:00 +7°C° 0 mm 2 mps 725 mmHg 71%
    01:00 +7°C° 0 mm 3 mps 725 mmHg 70%
    02:00 +5°C° 0 mm 3 mps 724 mmHg 70%
    03:00 +5°C° 0 mm 4 mps 724 mmHg 69%
    04:00 +5°C° 0 mm 4 mps 724 mmHg 68%
    05:00 +5°C° 0 mm 4 mps 724 mmHg 68%
    06:00 +5°C° 0 mm 4 mps 725 mmHg 67%
    07:00 +6°C° 0 mm 4 mps 725 mmHg 60%
    08:00 +8°C° 0 mm 5 mps 725 mmHg 54%
    09:00 +10°C° 0 mm 5 mps 725 mmHg 48%
    10:00 +13°C° 0 mm 5 mps 724 mmHg 45%
    11:00 +14°C° 0 mm 6 mps 724 mmHg 41%
    12:00 +15°C° 0 mm 6 mps 724 mmHg 38%
    13:00 +16°C° 0 mm 6 mps 724 mmHg 37%
    14:00 +16°C° 0 mm 6 mps 724 mmHg 37%
    15:00 +17°C° 0 mm 6 mps 724 mmHg 36%
    16:00 +15°C° 0 mm 5 mps 724 mmHg 40%
    17:00 +13°C° 0 mm 4 mps 725 mmHg 44%
    18:00 +12°C° 0 mm 3 mps 725 mmHg 48%
    19:00 +11°C° 0 mm 3 mps 726 mmHg 52%
    20:00 +9°C° 0 mm 2 mps 727 mmHg 55%
    21:00 +8°C° 0 mm 2 mps 728 mmHg 59%
    22:00 +8°C° 0 mm 2 mps 728 mmHg 61%
    23:00 +7°C° 0 mm 2 mps 729 mmHg 62%

    30 March, Thursday

    Time Temperature Precipitation Wind Pressure Humidity
    00:00 +7°C° 0 mm 2 mps 729 mmHg 64%
    01:00 +6°C° 0 mm 2 mps 729 mmHg 69%
    02:00 +6°C° 0 mm 2 mps 730 mmHg 74%
    03:00 +5°C° 0 mm 2 mps 730 mmHg 79%
    04:00 +5°C° 0 mm 2 mps 730 mmHg 82%
    05:00 +5°C° 0 mm 2 mps 731 mmHg 85%
    06:00 +5°C° 0 mm 2 mps 731 mmHg 88%
    07:00 +6°C° 0 mm 2 mps 731 mmHg 81%
    08:00 +8°C° 0 mm 3 mps 731 mmHg 75%
    09:00 +8°C° 0 mm 4 mps 731 mmHg 68%
    10:00 +10°C° 0 mm 4 mps 731 mmHg 66%
    11:00 +10°C° 0 mm 4 mps 730 mmHg 64%
    12:00 +11°C° 0 mm 4 mps 729 mmHg 62%
    13:00 +11°C° 0 mm 3 mps 729 mmHg 61%
    14:00 +12°C° 0 mm 3 mps 728 mmHg 60%
    15:00 +13°C° 0 mm 2 mps 727 mmHg 60%
    16:00 +12°C° 0 mm 2 mps 727 mmHg 65%
    17:00 +10°C° 0 mm 2 mps 727 mmHg 71%
    18:00 +10°C° 0 mm 1 mps 727 mmHg 77%
    19:00 +9°C° 0 mm 1 mps 727 mmHg 80%
    20:00 +8°C° 0 mm 1 mps 728 mmHg 83%
    21:00 +6°C° 0 mm 0 mps 728 mmHg 87%
    22:00 +7°C° 0 mm 1 mps 727 mmHg 87%
    23:00 +7°C° 0 mm 1 mps 727 mmHg 87%

    31 March, Friday

    Time Temperature Precipitation Wind Pressure Humidity
    00:00 +5°C° 0 mm 2 mps 727 mmHg 87%
    01:00 +6°C° 0 mm 2 mps 726 mmHg 85%
    02:00 +6°C° 0 mm 2 mps 726 mmHg 82%
    03:00 +5°C° 0 mm 3 mps 726 mmHg 79%
    04:00 +5°C° 0 mm 3 mps 726 mmHg 77%
    05:00 +5°C° 0 mm 3 mps 725 mmHg 74%
    06:00 +5°C° 0 mm 3 mps 725 mmHg 71%
    07:00 +9°C° 0 mm 3 mps 725 mmHg 63%
    08:00 +11°C° 0 mm 3 mps 725 mmHg 55%
    09:00 +13°C° 0 mm 3 mps 725 mmHg 46%
    10:00 +16°C° 0 mm 3 mps 725 mmHg 44%
    11:00 +17°C° 0 mm 4 mps 725 mmHg 41%
    12:00 +18°C° 0 mm 4 mps 724 mmHg 39%
    13:00 +18°C° 0 mm 4 mps 724 mmHg 39%
    14:00 +18°C° 0 mm 4 mps 724 mmHg 39%
    15:00 +18°C° 0 mm 3 mps 724 mmHg 39%
    16:00 +17°C° 0.1 mm 3 mps 724 mmHg 44%
    17:00 +16°C° 0.1 mm 3 mps 725 mmHg 49%
    18:00 +14°C° 0.1 mm 2 mps 725 mmHg 54%
    19:00 +14°C° 0.4 mm 2 mps 726 mmHg 60%
    20:00 +13°C° 0.4 mm 2 mps 727 mmHg 66%
    21:00 +12°C° 0.4 mm 2 mps 728 mmHg 72%
    22:00 +10°C° 0.7 mm 2 mps 728 mmHg 75%
    23:00 +10°C° 0.7 mm 2 mps 728 mmHg 78%

    1 April, Saturday

    Time Temperature Precipitation Wind Pressure Humidity
    00:00 +9°C° 0.7 mm 2 mps 728 mmHg 81%
    01:00 +9°C° 0.3 mm 2 mps 729 mmHg 82%
    02:00 +8°C° 0.3 mm 2 mps 729 mmHg 83%
    03:00 +8°C° 0.3 mm 3 mps 729 mmHg 84%
    04:00 +8°C° 0.3 mm 3 mps 730 mmHg 86%
    05:00 +6°C° 0.3 mm 4 mps 730 mmHg 87%
    06:00 +6°C° 0.3 mm 4 mps 730 mmHg 88%
    07:00 +6°C° 0.3 mm 5 mps 730 mmHg 85%
    08:00 +6°C° 0.3 mm 5 mps 731 mmHg 82%
    09:00 +5°C° 0.3 mm 6 mps 731 mmHg 79%
    10:00 +5°C° 0.2 mm 6 mps 731 mmHg 77%
    11:00 +7°C° 0.2 mm 6 mps 731 mmHg 75%
    12:00 +6°C° 0.2 mm 7 mps 731 mmHg 73%
    13:00 +7°C° 0.1 mm 6 mps 731 mmHg 73%
    14:00 +7°C° 0.1 mm 6 mps 731 mmHg 72%
    15:00 +7°C° 0.1 mm 6 mps 731 mmHg 72%
    16:00 +5°C° 0 mm 6 mps 731 mmHg 74%
    17:00 +5°C° 0 mm 5 mps 731 mmHg 77%
    18:00 +4°C° 0 mm 4 mps 732 mmHg 79%
    19:00 +4°C° 0 mm 4 mps 732 mmHg 81%
    20:00 +4°C° 0 mm 3 mps 732 mmHg 83%
    21:00 +3°C° 0 mm 3 mps 733 mmHg 86%
    22:00 +4°C° 0 mm 2 mps 732 mmHg 88%
    23:00 +3°C° 0 mm 2 mps 732 mmHg 90%
    Show more